GW3011 Weather Reports


time (UTC)temp
F
wind
direction
speed
knots
gust
knots
rain 1hr
in
rain 24hr
in
rain mn
in
humidity
%
barometer
mb
20260510033000 53 308 0.0 0.0 0.00 0.12 0.12 99 1010.1
20260510032456 53 298 0.0 0.0 0.00 0.12 0.12 99 1010.2
20260510031951 53 5 0.9 1.7 0.00 0.12 0.12 99 1010.2
20260510031447 53 311 0.0 0.0 0.00 0.12 0.12 99 1010.0
20260510030943 53 307 0.0 0.0 0.00 0.12 0.12 99 1010.1
20260510030438 53 312 0.0 0.0 0.00 0.12 0.12 99 1009.9
20260510025936 54 342 0.0 0.9 0.00 0.12 0.12 99 1010.2
20260510025433 54 315 0.9 0.9 0.00 0.12 0.12 98 1010.2
20260510024931 54 317 0.0 0.0 0.00 0.12 0.12 98 1010.1
20260510024427 54 306 0.0 0.0 0.00 0.12 0.12 98 1010.2
20260510023923 54 309 0.0 0.0 0.00 0.12 0.12 98 1010.2
20260510023419 54 315 0.9 0.9 0.00 0.12 0.12 98 1010.2
20260510022917 54 349 0.9 1.7 0.00 0.12 0.12 98 1010.1
20260510022415 54 308 0.0 0.0 0.00 0.12 0.12 98 1010.5
20260510021915 54 308 0.0 0.0 0.00 0.12 0.12 98 1010.5
20260510021413 54 317 0.0 0.0 0.00 0.12 0.12 98 1010.0
20260510020909 54 314 0.0 0.0 0.00 0.12 0.12 98 1010.2
20260510020404 54 312 0.0 0.0 0.00 0.12 0.12 98 1010.1
20260510015900 54 314 0.0 0.0 0.00 0.12 0.12 98 1010.4
20260510015356 54 312 0.0 0.0 0.00 0.12 0.12 98 1010.3
20260510014851 54 313 0.0 0.0 0.00 0.12 0.12 97 1010.3
20260510014349 54 314 0.0 0.0 0.00 0.12 0.12 97 1010.0
20260510013845 54 313 0.0 0.0 0.00 0.12 0.12 97 1010.0
20260510013341 54 310 0.0 0.0 0.00 0.12 0.12 97 1010.2
20260510012836 54 312 0.0 0.0 0.00 0.12 0.12 97 1010.0
20260510012335 54 311 0.0 0.0 0.00 0.12 0.12 97 1010.1
20260510011831 54 339 0.0 0.0 0.00 0.12 0.12 97 1010.2
20260510011326 55 312 0.0 0.0 0.00 0.12 0.12 97 1010.0
20260510010823 55 319 0.0 0.0 0.00 0.12 0.12 97 1009.9
20260510010320 55 316 0.0 0.0 0.00 0.12 0.12 97 1009.8
20260510005817 55 309 0.0 0.0 0.00 0.12 0.12 97 1009.7
20260510005313 55 311 0.0 0.0 0.00 0.12 0.12 97 1009.6
20260510004811 55 311 0.0 0.0 0.00 0.12 0.12 97 1009.7
20260510004308 55 309 0.0 0.0 0.00 0.12 0.12 97 1009.8
20260510003806 55 312 0.9 0.9 0.00 0.12 0.12 97 1009.7
20260510003302 55 312 0.0 0.0 0.00 0.12 0.12 97 1009.6
20260510002801 55 314 0.0 0.0 0.00 0.12 0.12 97 1009.8
20260510002259 55 323 0.0 0.0 0.00 0.12 0.12 96 1009.6
20260510001755 55 312 0.0 0.0 0.00 0.12 0.12 96 1009.7
20260510001254 55 311 0.0 0.0 0.00 0.12 0.12 96 1009.6
20260510000749 55 323 0.0 0.0 0.00 0.12 0.12 96 1009.5
20260510000248 55 321 0.0 0.9 0.00 0.12 0.12 96 1009.4
20260509235744 55 310 0.0 0.0 0.00 0.12 0.12 95 1009.5
20260509235240 55 310 0.0 0.0 0.00 0.12 0.12 95 1009.5
20260509234736 55 339 0.0 0.0 0.00 0.12 0.12 95 1009.4
20260509234233 56 316 0.0 0.0 0.00 0.12 0.12 95 1009.5
20260509233731 56 311 0.0 0.0 0.00 0.12 0.12 95 1009.3
20260509233229 56 324 0.0 0.0 0.00 0.12 0.12 95 1009.1
20260509232724 56 312 0.0 0.0 0.00 0.12 0.12 95 1009.3
20260509232222 57 312 0.0 0.0 0.00 0.12 0.12 96 1009.3
20260509231718 57 319 0.9 0.9 0.00 0.12 0.12 96 1009.1
20260509231215 57 314 0.0 0.0 0.00 0.12 0.12 96 1009.2
20260509230712 57 294 0.0 0.0 0.00 0.12 0.12 96 1009.2
20260509230203 57 308 0.0 0.0 0.00 0.12 0.12 96 1009.4
20260509225659 57 309 0.0 0.0 0.00 0.12 0.12 96 1009.5
20260509225154 57 307 0.0 0.9 0.00 0.12 0.12 96 1009.9
20260509224651 57 312 0.0 0.0 0.07 0.12 0.12 95 1010.0
20260509224148 57 306 0.0 0.0 0.12 0.12 0.12 95 1009.8
20260509223645 57 310 0.0 0.0 0.12 0.11 0.11 95 1009.7
20260509223142 57 340 0.9 1.7 0.19 0.10 0.10 94 1010.1
20260509222639 57 310 0.9 0.9 0.17 0.09 0.09 94 1009.9
20260509222134 57 310 0.0 0.0 0.05 0.07 0.07 93 1010.2
20260509221630 57 307 0.0 0.0 0.00 0.06 0.06 93 1010.4
20260509221126 58 308 0.0 0.0 0.07 0.06 0.06 93 1010.1
20260509220622 58 309 0.0 0.0 0.31 0.06 0.06 92 1010.1
20260509220119 58 310 0.0 0.0 0.31 0.05 0.05 91 1009.7
20260509215615 58 306 0.0 0.9 0.12 0.02 0.02 88 1010.8
20260509215112 58 294 0.9 0.9 0.00 0.00 0.00 88 1010.6
20260509214608 58 312 0.0 0.0 0.00 0.00 0.00 88 1009.8
20260509214105 59 314 0.0 0.0 0.00 0.00 0.00 88 1010.0
20260509213601 58 301 1.7 1.7 0.00 0.00 0.00 87 1009.7
20260509213058 58 331 0.0 0.0 0.00 0.00 0.00 87 1009.7
20260509212555 58 311 0.0 0.0 0.00 0.00 0.00 86 1010.1
20260509212053 58 312 0.0 0.0 0.00 0.00 0.00 85 1010.1
20260509211548 59 303 0.9 0.9 0.00 0.00 0.00 85 1010.0
20260509211045 59 306 0.9 0.9 0.00 0.00 0.00 86 1010.1
20260509210542 58 312 0.9 1.7 0.00 0.00 0.00 86 1010.1
20260509210038 58 305 1.7 2.6 0.00 0.00 0.00 86 1009.8
20260509205538 58 315 0.9 0.9 0.00 0.00 0.00 87 1010.0
20260509205033 58 306 0.0 0.0 0.00 0.00 0.00 87 1010.2
20260509204530 58 296 0.0 0.0 0.00 0.04 0.04 87 1010.2
20260509204026 58 304 1.7 1.7 0.00 0.04 0.04 85 1010.3
20260509203522 58 307 0.9 0.9 0.00 0.04 0.04 87 1010.2
20260509203021 58 296 0.9 0.9 0.00 0.04 0.04 86 1010.0
20260509202515 58 307 2.6 2.6 0.00 0.04 0.04 86 1010.1
20260509202011 58 309 1.7 1.7 0.00 0.04 0.04 87 1010.2
20260509201506 58 299 1.7 1.7 0.00 0.04 0.04 87 1010.1
20260509201004 59 307 0.0 0.0 0.00 0.04 0.04 88 1010.1
20260509200458 59 303 0.0 0.0 0.00 0.04 0.04 89 1010.2
20260509195955 59 293 0.0 0.0 0.00 0.04 0.04 87 1010.1
20260509195450 59 289 0.0 0.0 0.00 0.04 0.04 88 1010.6
20260509194950 59 305 0.0 0.0 0.00 0.04 0.04 89 1010.5
20260509194446 59 272 0.0 0.9 0.00 0.04 0.04 89 1010.2
20260509193943 59 310 0.0 0.0 0.00 0.04 0.04 90 1010.2
20260509193443 59 344 0.9 1.7 0.00 0.04 0.04 89 1010.3
20260509192939 59 321 0.0 0.0 0.00 0.04 0.04 90 1010.3
20260509192436 59 331 0.0 0.0 0.00 0.04 0.04 90 1010.3
20260509191931 59 34 0.0 1.7 0.00 0.04 0.04 90 1010.1
20260509191426 60 354 3.5 3.5 0.00 0.04 0.04 88 1010.2
20260509190922 59 306 0.0 0.0 0.00 0.04 0.04 87 1009.9
20260509190420 59 318 0.0 0.0 0.00 0.04 0.04 86 1010.0
20260509185917 59 310 0.0 0.0 0.00 0.04 0.04 88 1010.1
20260509185415 59 322 0.0 0.0 0.05 0.04 0.04 91 1010.0
20260509184911 59 302 0.0 0.9 0.12 0.04 0.04 90 1010.2
20260509184408 59 221 1.7 2.6 0.07 0.03 0.03 89 1011.1
20260509183905 59 162 2.6 5.2 0.05 0.02 0.02 87 1011.0
20260509183359 59 306 0.9 1.7 0.05 0.02 0.02 87 1010.8
20260509182856 59 284 1.7 1.7 0.07 0.01 0.01 87 1010.7
20260509182353 60 28 2.6 2.6 0.07 0.01 0.01 86 1010.8
20260509181850 61 50 1.7 2.6 0.00 0.00 0.00 81 1010.4
20260509181347 61 208 0.9 1.7 0.00 0.00 0.00 79 1010.2
20260509180845 61 191 1.7 1.7 0.00 0.00 0.00 81 1010.0
20260509180341 61 300 0.9 0.9 0.00 0.00 0.00 83 1009.8
20260509175838 60 329 1.7 1.7 0.00 0.00 0.00 83 1009.8
20260509175334 60 44 0.0 0.9 0.00 0.00 0.00 83 1009.9
20260509174830 61 350 3.5 3.5 0.00 0.00 0.00 84 1010.1
20260509174326 60 70 3.5 5.2 0.00 0.00 0.00 84 1010.3
20260509173822 60 307 0.0 0.9 0.00 0.00 0.00 84 1010.1
20260509173317 60 69 2.6 3.5 0.00 0.00 0.00 83 1010.2
20260509172814 60 48 2.6 2.6 0.00 0.00 0.00 82 1010.0
20260509172311 60 1 1.7 1.7 0.00 0.00 0.00 83 1010.0
20260509171806 60 309 0.9 0.9 0.00 0.00 0.00 84 1010.1
20260509171302 59 50 0.9 1.7 0.00 0.00 0.00 85 1010.1
20260509170759 60 16 1.7 1.7 0.00 0.00 0.00 84 1010.1
20260509170255 60 64 0.9 0.9 0.00 0.00 0.00 82 1010.3
20260509165754 61 54 1.7 1.7 0.00 0.00 0.00 79 1010.2
20260509165249 63 22 2.6 2.6 0.00 0.00 0.00 75 1010.3
20260509164746 65 61 1.7 2.6 0.00 0.00 0.00 69 1010.2
20260509164241 65 324 0.0 0.9 0.00 0.00 0.00 67 1010.1
20260509163739 66 329 0.9 0.9 0.00 0.00 0.00 65 1010.0
20260509163235 66 303 0.0 0.0 0.00 0.00 0.00 64 1010.5
20260509162733 65 325 0.0 0.9 0.00 0.00 0.00 64 1010.3
20260509162227 66 308 0.0 0.9 0.00 0.00 0.00 64 1010.2
20260509161724 64 311 0.0 0.0 0.00 0.00 0.00 67 1010.5
20260509161220 63 305 0.0 0.9 0.00 0.00 0.00 68 1010.7
20260509160715 62 341 1.7 1.7 0.00 0.00 0.00 69 1010.8
20260509160212 62 342 1.7 2.6 0.00 0.00 0.00 70 1010.9
20260509155707 61 0 0.0 0.9 0.00 0.00 0.00 71 1010.9
20260509155203 61 4 1.7 1.7 0.00 0.00 0.00 71 1010.9
20260509154700 61 344 0.9 1.7 0.00 0.00 0.00 72 1011.1
20260509154157 61 319 2.6 3.5 0.00 0.00 0.00 71 1011.1
20260509153654 62 325 1.7 2.6 0.00 0.00 0.00 70 1011.2
20260509153150 63 312 0.0 0.9 0.00 0.00 0.00 68 1011.3
20260509152646 63 277 0.9 1.7 0.00 0.00 0.00 67 1011.4
20260509152143 63 312 0.9 0.9 0.00 0.00 0.00 67 1011.2
20260509151640 63 210 3.5 3.5 0.00 0.00 0.00 66 1011.1
20260509151137 63 202 2.6 3.5 0.00 0.00 0.00 67 1011.3
20260509150635 63 244 2.6 3.5 0.00 0.00 0.00 66 1011.3
20260509150133 63 228 1.7 2.6 0.00 0.00 0.00 67 1011.5
20260509145629 63 314 0.9 1.7 0.00 0.00 0.00 66 1011.3
20260509145124 63 287 0.9 1.7 0.00 0.00 0.00 67 1011.3
20260509144621 64 198 1.7 1.7 0.00 0.00 0.00 65 1011.4
20260509144118 63 259 0.9 1.7 0.00 0.00 0.00 66 1011.3
20260509143615 64 276 2.6 3.5 0.00 0.00 0.00 66 1011.2
20260509143113 62 205 0.9 2.6 0.00 0.00 0.00 67 1011.1
20260509142608 61 304 0.9 1.7 0.00 0.00 0.00 68 1011.3
20260509142104 61 208 1.7 2.6 0.00 0.00 0.00 70 1011.1
20260509141601 62 317 1.7 6.1 0.00 0.00 0.00 68 1011.5
20260509141057 61 312 0.9 0.9 0.00 0.00 0.00 69 1011.3
20260509140554 60 306 0.9 0.9 0.00 0.00 0.00 69 1011.3
20260509140052 60 251 1.7 1.7 0.00 0.00 0.00 70 1011.6
20260509135549 60 296 0.0 0.9 0.00 0.00 0.00 71 1011.5
20260509135047 59 186 0.9 1.7 0.00 0.00 0.00 72 1011.5
20260509134544 59 304 0.0 0.0 0.00 0.00 0.00 71 1011.3
20260509134041 59 202 0.9 1.7 0.00 0.00 0.00 72 1011.4
20260509133538 58 139 3.5 3.5 0.00 0.00 0.00 73 1011.3
20260509133035 59 152 1.7 2.6 0.00 0.00 0.00 73 1011.6
20260509132533 59 188 1.7 5.2 0.00 0.00 0.00 72 1011.4
20260509132031 60 205 1.7 3.5 0.00 0.00 0.00 70 1011.5
20260509131522 60 27 1.7 1.7 0.00 0.00 0.00 70 1011.4
20260509131019 59 218 1.7 2.6 0.00 0.00 0.00 71 1011.4
20260509130514 59 32 0.9 0.9 0.00 0.00 0.00 71 1011.5
20260509130012 59 6 0.9 1.7 0.00 0.00 0.00 71 1011.7
20260509125508 59 299 0.0 0.0 0.00 0.00 0.00 72 1011.9
20260509125004 58 312 0.0 0.0 0.00 0.00 0.00 73 1011.8
20260509124501 58 307 0.0 0.9 0.00 0.00 0.00 73 1011.8
20260509123958 58 302 0.0 0.0 0.00 0.00 0.00 71 1011.8
20260509123456 58 313 0.9 1.7 0.00 0.00 0.00 72 1011.9
20260509122951 58 304 0.9 0.9 0.00 0.00 0.00 72 1011.8
20260509122449 58 308 1.7 2.6 0.00 0.00 0.00 72 1012.0
20260509121945 58 315 0.9 0.9 0.00 0.00 0.00 72 1012.0
20260509121442 58 304 0.0 0.0 0.00 0.00 0.00 71 1011.8
20260509120940 58 351 0.9 0.9 0.00 0.00 0.00 72 1011.8
20260509120438 58 308 0.9 1.7 0.00 0.00 0.00 71 1011.9
20260509115936 58 302 0.0 0.9 0.00 0.00 0.00 71 1011.7
20260509115432 57 289 0.0 0.9 0.00 0.00 0.00 71 1012.1
20260509114930 57 182 2.6 2.6 0.00 0.00 0.00 71 1011.9
20260509114429 57 262 1.7 2.6 0.00 0.00 0.00 71 1012.0
20260509113928 57 261 0.0 0.9 0.00 0.00 0.00 71 1012.0
20260509113425 57 165 3.5 5.2 0.00 0.00 0.00 71 1011.9
20260509112921 57 195 2.6 3.5 0.00 0.00 0.00 71 1011.9
20260509112419 57 182 2.6 3.5 0.00 0.00 0.00 71 1011.9
20260509111915 57 149 1.7 3.5 0.00 0.00 0.00 71 1011.6
20260509111412 57 274 1.7 2.6 0.00 0.00 0.00 71 1011.8
20260509110910 57 301 0.9 0.9 0.00 0.00 0.00 71 1011.9
20260509110406 57 172 3.5 5.2 0.00 0.00 0.00 71 1011.8
20260509105904 57 135 3.5 3.5 0.00 0.00 0.00 71 1012.0
20260509105402 57 231 1.7 2.6 0.00 0.00 0.00 72 1011.8
20260509104859 57 140 5.2 7.8 0.00 0.00 0.00 71 1011.7
20260509104355 57 310 0.0 0.0 0.00 0.00 0.00 72 1011.5
20260509103853 57 248 3.5 6.1 0.00 0.00 0.00 72 1011.4
20260509103350 56 188 1.7 1.7 0.00 0.00 0.00 72 1011.6
20260509102849 56 285 0.0 0.0 0.00 0.00 0.00 72 1011.8
20260509102346 56 268 0.0 0.0 0.00 0.00 0.00 72 1011.5
20260509101841 56 301 0.0 0.9 0.00 0.00 0.00 74 1011.5
20260509101338 56 314 0.9 0.9 0.00 0.00 0.00 75 1011.4
20260509100836 55 327 0.0 0.0 0.00 0.00 0.00 76 1011.6
20260509100333 55 326 0.9 0.9 0.00 0.00 0.00 76 1011.4
20260509095829 55 328 0.0 0.0 0.00 0.00 0.00 76 1011.3
20260509095327 55 319 0.9 0.9 0.00 0.00 0.00 77 1011.3
20260509094824 55 321 1.7 1.7 0.00 0.00 0.00 77 1011.4
20260509094320 55 324 0.9 1.7 0.00 0.00 0.00 78 1011.5
20260509093818 55 325 0.0 0.9 0.00 0.00 0.00 78 1011.6
20260509093315 55 319 0.0 0.0 0.00 0.00 0.00 77 1011.2
20260509092814 55 318 0.0 0.0 0.00 0.00 0.00 78 1011.1
20260509092311 55 322 0.9 0.9 0.00 0.00 0.00 78 1011.4
20260509091809 55 329 0.9 0.9 0.00 0.00 0.00 78 1011.4
20260509091305 55 311 0.0 0.0 0.00 0.00 0.00 78 1011.6
20260509090803 55 313 0.0 0.9 0.00 0.00 0.00 78 1011.4
20260509090300 55 316 0.9 0.9 0.00 0.00 0.00 78 1011.3
20260509085757 56 306 0.0 0.0 0.00 0.00 0.00 78 1011.3
20260509085254 56 296 0.9 0.9 0.00 0.00 0.00 77 1011.4
20260509084751 56 313 0.9 1.7 0.00 0.00 0.00 77 1011.3
20260509084248 57 318 0.9 1.7 0.00 0.00 0.00 74 1011.5
20260509083746 56 333 0.9 0.9 0.00 0.00 0.00 72 1011.3
20260509083242 56 324 0.0 0.9 0.00 0.00 0.00 73 1011.5
20260509082738 56 318 0.0 0.0 0.00 0.00 0.00 74 1011.5
20260509082235 56 318 0.0 0.0 0.00 0.00 0.00 75 1011.6
20260509081732 56 317 0.0 0.0 0.00 0.00 0.00 75 1011.6
20260509081230 56 317 0.0 0.0 0.00 0.00 0.00 76 1011.3
20260509080728 56 317 0.0 0.0 0.00 0.00 0.00 76 1011.4
20260509080225 56 317 0.0 0.0 0.00 0.00 0.00 76 1011.5
20260509075723 56 318 0.0 0.0 0.00 0.00 0.00 75 1011.4
20260509075221 56 318 0.0 0.0 0.00 0.00 0.00 75 1011.4
20260509074717 56 336 0.0 0.0 0.00 0.00 0.00 73 1011.6
20260509074215 56 324 0.0 0.0 0.00 0.00 0.00 74 1011.6
20260509073711 56 325 0.0 0.0 0.00 0.00 0.00 74 1011.7
20260509073207 56 340 0.9 0.9 0.00 0.00 0.00 74 1011.7
20260509072704 55 317 0.0 0.0 0.00 0.00 0.00 76 1011.7
20260509072201 55 310 0.0 0.0 0.00 0.00 0.00 77 1011.8
20260509071657 55 312 0.0 0.0 0.00 0.00 0.00 77 1011.7
20260509071155 56 343 1.7 1.7 0.00 0.00 0.00 77 1011.4
20260509070652 56 312 0.0 0.0 0.00 0.00 0.00 77 1011.5
20260509070148 56 322 0.0 0.9 0.00 0.00 0.00 77 1011.4
20260509065644 56 351 0.9 1.7 0.00 0.00 0.00 76 1011.6
20260509065140 56 16 1.7 1.7 0.00 0.00 0.00 76 1011.7
20260509064637 56 320 1.7 1.7 0.00 0.00 0.00 77 1011.4
20260509064135 55 325 0.0 0.9 0.00 0.00 0.00 77 1011.3
20260509063632 55 319 0.0 0.0 0.00 0.00 0.00 77 1011.3
20260509063128 56 319 0.9 0.9 0.00 0.00 0.00 77 1011.5
20260509062626 56 309 0.0 0.9 0.00 0.00 0.00 77 1011.5
20260509062123 56 315 0.0 0.0 0.00 0.00 0.00 78 1011.5
20260509061619 56 312 0.0 0.0 0.00 0.00 0.00 78 1011.9
20260509061117 56 312 0.0 0.9 0.00 0.00 0.00 77 1011.9
20260509060615 56 312 0.9 1.7 0.00 0.00 0.00 77 1012.0
20260509060110 56 305 0.0 0.0 0.00 0.00 0.00 76 1012.3
20260509055606 56 331 0.9 0.9 0.00 0.00 0.00 75 1012.0
20260509055102 56 318 0.0 0.0 0.00 0.00 0.00 74 1012.3
20260509054559 56 341 0.9 0.9 0.00 0.00 0.00 73 1012.3
20260509054057 56 317 0.9 0.9 0.00 0.00 0.00 72 1012.1
20260509053555 57 310 0.9 0.9 0.00 0.00 0.00 71 1012.3
20260509053051 57 322 0.9 0.9 0.00 0.00 0.00 70 1012.1
20260509052549 57 357 0.9 0.9 0.00 0.00 0.00 69 1012.1
20260509052047 57 314 0.0 0.0 0.00 0.00 0.00 67 1012.4
20260509051545 57 317 0.0 0.0 0.00 0.00 0.00 67 1012.3
20260509051041 57 315 0.0 0.0 0.00 0.00 0.00 66 1012.2
20260509050539 57 319 0.0 0.0 0.00 0.00 0.00 66 1012.1
20260509050035 57 319 0.0 0.0 0.00 0.00 0.00 66 1012.1
20260509045532 56 317 0.0 0.0 0.00 0.00 0.00 67 1012.1
20260509045029 55 316 0.0 0.0 0.00 0.00 0.00 68 1012.0
20260509044527 55 316 0.0 0.0 0.00 0.00 0.00 69 1012.1
20260509044024 55 315 0.0 0.0 0.00 0.00 0.00 69 1011.9
20260509043520 55 315 0.0 0.0 0.00 0.00 0.00 69 1012.0
20260509043010 55 315 0.0 0.0 0.00 0.00 0.00 69 1012.1
20260509042507 55 315 0.0 0.0 0.00 0.00 0.00 68 1012.2
20260509042003 55 315 0.0 0.0 0.00 0.00 0.00 69 1012.0
20260509041500 55 316 0.0 0.0 0.00 0.00 0.00 68 1012.1
20260509040958 55 315 0.0 0.0 0.00 0.00 0.00 68 1012.0
20260509040456 55 315 0.0 0.0 0.00 0.00 0.00 68 1011.9
20260509035952 56 315 0.0 0.0 0.00 0.00 0.00 66 1012.0
20260509035449 56 317 0.0 0.9 0.00 0.00 0.00 66 1012.1
20260509034945 56 313 0.0 0.9 0.00 0.00 0.00 65 1012.3
20260509034443 56 314 0.0 0.9 0.00 0.00 0.00 65 1012.3
20260509033940 56 310 0.0 0.0 0.00 0.00 0.00 65 1012.1
20260509033437 57 310 0.0 0.0 0.00 0.00 0.00 65 1012.2